Weather History for Gillette, WY

Change the Weather History Date:

Thursday, March 6, 2014

  Actual Average Record
Temperature  
Mean Temperature 45 °F 32 °F  
Max Temperature 55 °F 44 °F 68 °F (1987)
Min Temperature 34 °F 20 °F -15 °F (1943)
Degree Days  
Heating Degree Days 20 33  
Month to date heating degree days 249 201  
Since 1 July heating degree days 5894 5609  
Cooling Degree Days 0 0  
Month to date cooling degree days 0 0  
Year to date cooling degree days 0 0  
Moisture  
Dew Point 31 °F    
Average Humidity 68    
Maximum Humidity 85    
Minimum Humidity 50    
Precipitation  
Precipitation 0.02 in 0.03 in 0.68 in (1983)
Month to date precipitation 0.18 0.14  
Year to date precipitation 1.46 0.92  
Sea Level Pressure  
Sea Level Pressure 29.73 in    
Wind  
Wind Speed 17 mph (WSW)    
Max Wind Speed 32 mph    
Max Gust Speed 40 mph    
Visibility 10 miles    
Events Rain    
T = Trace of Precipitation, MM = Missing Value Source: NWS Daily Summary

Daily Weather History Graph

Daily Weather History Graph

Search for Another Location

Airport:

Trip Planner

Search our weather history database for the weather conditions in past years. The results will help you decide how hot, cold, wet, or windy it might be!

Date:

Astronomy

Mar. 06, 2014 Rise Set
Actual Time 6:30 AM MST 5:56 PM MST
Civil Twilight 6:01 AM MST 6:25 PM MST
Nautical Twilight 5:28 AM MST 6:59 PM MST
Astronomical Twilight 4:54 AM MST 7:33 PM MST
Moon 9:27 AM MST (3/6) No Moon Set
Length of Visible Light 12h 24m
Length of Day
11h 26m
Waxing Crescent, 33% of the Moon is Illuminated
Mar 6
Waxing Crescent
Mar 8
First Quarter
Mar 16
Full
Mar 23
Last Quarter
Mar 30
New

Hourly Weather History & Observations

Time (MST) Temp. Windchill Dew Point Humidity Pressure Visibility Wind Dir Wind Speed Gust Speed Precip Events Conditions
12:53 AM 39.9 °F 31.1 °F 28.0 °F 63% 29.78 in 10.0 mi SW 17.3 mph - N/A   Clear
1:53 AM 39.9 °F 31.8 °F 28.0 °F 63% 29.76 in 10.0 mi SSW 15.0 mph - N/A   Clear
2:53 AM 39.9 °F 30.8 °F 27.0 °F 60% 29.74 in 10.0 mi SW 18.4 mph - N/A   Clear
3:53 AM 41.0 °F 31.1 °F 27.0 °F 57% 29.73 in 10.0 mi SW 23.0 mph 27.6 mph N/A   Clear
4:53 AM 42.1 °F 33.1 °F 27.0 °F 55% 29.71 in 10.0 mi SSW 20.7 mph - N/A   Clear
5:53 AM 39.9 °F 30.2 °F 28.0 °F 63% 29.73 in 10.0 mi SW 20.7 mph - N/A   Clear
6:53 AM 42.1 °F 32.6 °F 28.0 °F 58% 29.72 in 10.0 mi SW 23.0 mph - N/A   Clear
7:53 AM 43.0 °F 32.9 °F 28.0 °F 56% 29.70 in 10.0 mi SW 27.6 mph 33.4 mph N/A   Clear
8:53 AM 44.1 °F 35.0 °F 28.9 °F 55% 29.70 in 10.0 mi SW 24.2 mph - N/A   Clear
9:53 AM 45.0 °F 35.4 °F 28.9 °F 53% 29.67 in 10.0 mi SW 28.8 mph 38.0 mph N/A   Clear
10:53 AM 46.9 °F - 30.0 °F 52% 29.65 in 10.0 mi SW 28.8 mph 38.0 mph N/A   Clear
11:53 AM 48.9 °F - 30.9 °F 50% 29.64 in 10.0 mi SW 28.8 mph 35.7 mph N/A   Clear
12:53 PM 50.0 °F - 32.0 °F 50% 29.63 in 10.0 mi SW 28.8 mph 40.3 mph N/A   Overcast
1:53 PM 50.0 °F - 33.1 °F 52% 29.62 in 10.0 mi SW 24.2 mph 29.9 mph N/A   Overcast
2:53 PM 54.0 °F - 35.1 °F 49% 29.60 in 10.0 mi SW 18.4 mph - N/A   Scattered Clouds
3:53 PM 48.0 °F - 35.1 °F 61% 29.65 in 10.0 mi North 15.0 mph - N/A   Clear
4:53 PM 45.0 °F 41.8 °F 35.1 °F 68% 29.68 in 10.0 mi North 5.8 mph - N/A   Clear
5:53 PM 42.1 °F 36.6 °F 33.1 °F 70% 29.75 in 10.0 mi NNW 9.2 mph - N/A   Mostly Cloudy
6:53 PM 41.0 °F 38.0 °F 34.0 °F 76% 29.77 in 10.0 mi North 4.6 mph - N/A   Overcast
7:53 PM 39.9 °F 32.9 °F 34.0 °F 79% 29.79 in 10.0 mi North 11.5 mph - N/A   Overcast
8:09 PM 39.2 °F 33.0 °F 33.8 °F 81% 29.80 in 10.0 mi NNW 9.2 mph - N/A   Overcast
8:53 PM 37.9 °F 29.6 °F 34.0 °F 86% 29.83 in 10.0 mi NNW 13.8 mph - N/A   Overcast
9:53 PM 37.0 °F - 35.1 °F 93% 29.85 in 10.0 mi Calm Calm - 0.01 in Rain Light Rain
10:53 PM 34.0 °F 31.0 °F 33.1 °F 96% 29.85 in 10.0 mi SSW 3.5 mph - 0.01 in   Overcast
11:53 PM 35.1 °F - 34.0 °F 96% 29.85 in 10.0 mi Calm Calm - 0.00 in   Overcast